Weather History for St. Joseph, MO

Change the Weather History Date:

Friday, October 28, 2011

  Actual Average Record
Temperature  
Mean Temperature 44 °F 50 °F  
Max Temperature 61 °F 62 °F 85 °F (1927)
Min Temperature 27 °F 39 °F 14 °F (1925)
Degree Days  
Heating Degree Days 21 15  
Month to date heating degree days 235 291  
Since 1 July heating degree days 288 371  
Cooling Degree Days 0 0  
Month to date cooling degree days 35 18  
Year to date cooling degree days 494 1217  
Moisture  
Dew Point 28 °F    
Average Humidity 64    
Maximum Humidity 100    
Minimum Humidity 27    
Precipitation  
Precipitation 0.00 in 0.08 in 1.42 in (1982)
Month to date precipitation 0.12 2.58  
Year to date precipitation 13.95 32.30  
Sea Level Pressure  
Sea Level Pressure 30.20 in    
Wind  
Wind Speed 6 mph (NW)    
Max Wind Speed 21 mph    
Max Gust Speed 30 mph    
Visibility 10 miles    
Events      
T = Trace of Precipitation, MM = Missing Value Source: NWS Daily Summary

Daily Weather History Graph

Daily Weather History Graph

Search for Another Location

Airport:

Trip Planner

Search our weather history database for the weather conditions in past years. The results will help you decide how hot, cold, wet, or windy it might be!

Date:

Astronomy

Oct. 28, 2011 Rise Set
Actual Time 7:43 AM CDT 6:22 PM CDT
Civil Twilight 7:15 AM CDT 6:50 PM CDT
Nautical Twilight 6:44 AM CDT 7:22 PM CDT
Astronomical Twilight 6:12 AM CDT 7:53 PM CDT
Moon 9:59 AM CDT 7:47 PM CDT
Length of Visible Light 11h 34m
Length of Day
10h 39m
Waxing Crescent, 5% of the Moon is Illuminated
Oct 28
Waxing Crescent
Nov 2
First Quarter
Nov 10
Full
Nov 18
Last Quarter
Nov 25
New

Hourly Weather History & Observations

Time (CDT) Temp. Windchill Dew Point Humidity Pressure Visibility Wind Dir Wind Speed Gust Speed Precip Events Conditions
12:53 AM 30.0 °F - 26.1 °F 85% 30.20 in 10.0 mi Calm Calm - N/A   Clear
1:53 AM 33.1 °F - 28.9 °F 85% 30.20 in 10.0 mi Calm Calm - N/A   Clear
2:53 AM 30.2 °F - 28.4 °F 93% 30.20 in 10.0 mi Calm Calm - N/A   Clear
3:53 AM 28.9 °F - 26.1 °F 89% 30.22 in 10.0 mi Calm Calm - N/A   Clear
4:53 AM 28.4 °F - 26.6 °F 93% 30.19 in 10.0 mi Calm Calm - N/A   Clear
5:53 AM 28.0 °F - 27.0 °F 96% 30.21 in 10.0 mi Calm Calm - N/A   Clear
6:53 AM 32.0 °F - 30.9 °F 96% 30.22 in 10.0 mi Calm Calm - N/A   Clear
7:53 AM 30.9 °F - 30.0 °F 96% 30.23 in 10.0 mi Calm Calm - N/A   Clear
8:53 AM 35.1 °F - 33.1 °F 92% 30.24 in 10.0 mi Calm Calm - N/A   Clear
9:53 AM 42.1 °F 38.4 °F 34.0 °F 73% 30.24 in 10.0 mi South 5.8 mph - N/A   Clear
10:53 AM 50.0 °F - 33.1 °F 52% 30.22 in 10.0 mi SSW 8.1 mph - N/A   Clear
11:53 AM 55.9 °F - 30.0 °F 37% 30.20 in 10.0 mi West 10.4 mph - N/A   Clear
12:53 PM 59.0 °F - 28.9 °F 32% 30.19 in 10.0 mi West 17.3 mph 20.7 mph N/A   Clear
1:53 PM 59.0 °F - 28.9 °F 32% 30.17 in 10.0 mi NW 12.7 mph - N/A   Clear
2:53 PM 60.1 °F - 27.0 °F 28% 30.17 in 10.0 mi North 19.6 mph 25.3 mph N/A   Clear
3:53 PM 60.1 °F - 27.0 °F 28% 30.16 in 10.0 mi NNW 17.3 mph - N/A   Partly Cloudy
4:53 PM 59.0 °F - 26.1 °F 28% 30.17 in 10.0 mi NW 15.0 mph - N/A   Scattered Clouds
5:53 PM 55.0 °F - 24.1 °F 30% 30.17 in 10.0 mi NNW 15.0 mph - N/A   Clear
6:53 PM 45.0 °F 41.2 °F 24.1 °F 44% 30.20 in 10.0 mi NW 6.9 mph - N/A   Clear
7:53 PM 39.9 °F 37.8 °F 24.1 °F 53% 30.22 in 10.0 mi NNE 3.5 mph - N/A   Clear
8:53 PM 44.1 °F - 23.0 °F 43% 30.22 in 10.0 mi Calm Calm - N/A   Clear
9:53 PM 37.0 °F - 27.0 °F 67% 30.23 in 10.0 mi Calm Calm - N/A   Clear
10:53 PM 37.9 °F - 30.0 °F 73% 30.23 in 10.0 mi Calm Calm - N/A   Clear
11:53 PM 30.0 °F - 24.1 °F 79% 30.20 in 10.0 mi Calm Calm - N/A   Clear